Weather History for Springfield, MO

Change the Weather History Date:

Saturday, August 3, 2013

  Actual Average Record
Temperature  
Mean Temperature 78 °F 79 °F  
Max Temperature 87 °F 90 °F 105 °F (2011)
Min Temperature 68 °F 68 °F 52 °F (1974)
Degree Days  
Heating Degree Days 0 0  
Month to date heating degree days 0 0  
Since 1 June heating degree days 14 9  
Since 1 July heating degree days 0 0  
Cooling Degree Days 13 14  
Month to date cooling degree days 37 42  
Year to date cooling degree days 821 830  
Since 1 June cooling degree days 694 715  
Growing Degree Days 28 (Base 50)    
Moisture  
Dew Point 70 °F    
Average Humidity 78    
Maximum Humidity 97    
Minimum Humidity 59    
Precipitation  
Precipitation 1.27 in 0.10 in 1.60 in (1971)
Month to date precipitation 1.27 0.29  
Year to date precipitation 33.58 26.85  
Snow  
Snow 0.00 in - - ()
Month to date snowfall 0.0  
Since 1 June snowfall 0.0  
Since 1 July snowfall 0.0  
Snow Depth 0.00 in    
Sea Level Pressure  
Sea Level Pressure 30.00 in    
Wind  
Wind Speed 9 mph (ESE)    
Max Wind Speed 37 mph    
Max Gust Speed 45 mph    
Visibility 8 miles    
Events Rain , Thunderstorm    
T = Trace of Precipitation, MM = Missing Value Source: NWS Daily Summary

Daily Weather History Graph

Daily Weather History Graph

Search for Another Location

Airport:

Trip Planner

Search our weather history database for the weather conditions in past years. The results will help you decide how hot, cold, wet, or windy it might be!

Date:

Astronomy

Aug. 03, 2013 Rise Set
Actual Time 6:20 AM CDT 8:18 PM CDT
Civil Twilight 5:51 AM CDT 8:47 PM CDT
Nautical Twilight 5:16 AM CDT 9:22 PM CDT
Astronomical Twilight 4:39 AM CDT 9:59 PM CDT
Moon 3:30 AM CDT (8/3) 6:00 PM CDT (8/3)
Length of Visible Light 14h 55m
Length of Day
13h 58m
Waning Crescent, 9% of the Moon is Illuminated
Aug 3
Waning Crescent
Aug 6
New
Aug 14
First Quarter
Aug 20
Full
Aug 28
Last Quarter

Hourly Weather History & Observations

Time (CDT) Temp. Heat Index Dew Point Humidity Pressure Visibility Wind Dir Wind Speed Gust Speed Precip Events Conditions
12:52 AM 77.0 °F - 73.0 °F 88% 29.89 in 10.0 mi SSE 10.4 mph - N/A   Clear
1:52 AM 77.0 °F - 73.0 °F 88% 29.88 in 9.0 mi SSE 10.4 mph - N/A   Mostly Cloudy
2:26 AM 77.0 °F - 73.0 °F 88% 29.91 in 9.0 mi SSE 11.5 mph - N/A Thunderstorm Mostly Cloudy
2:44 AM 77.0 °F - 73.9 °F 90% 29.92 in 9.0 mi SSE 11.5 mph - N/A   Mostly Cloudy
2:52 AM 77.0 °F - 73.9 °F 90% 29.88 in 9.0 mi SSE 11.5 mph - N/A   Mostly Cloudy
3:44 AM 77.0 °F - 73.9 °F 90% 29.89 in 8.0 mi South 10.4 mph - N/A Thunderstorm Mostly Cloudy
3:52 AM 78.1 °F - 73.9 °F 87% 29.85 in 8.0 mi SE 8.1 mph - N/A Thunderstorm Mostly Cloudy
4:18 AM 78.1 °F - 73.9 °F 87% 29.93 in 7.0 mi East 10.4 mph - 0.01 in Rain , Thunderstorm Light Thunderstorms and Rain
4:29 AM 75.0 °F - 72.0 °F 90% 29.97 in 2.0 mi NW 34.5 mph 44.9 mph 0.03 in Rain , Thunderstorm Thunderstorms and Rain
4:36 AM 69.1 °F - 66.9 °F 93% 29.98 in 0.8 mi NNW 25.3 mph 44.9 mph 0.23 in Rain , Thunderstorm Heavy Thunderstorms and Rain
4:42 AM 68.0 °F - 66.9 °F 96% 29.98 in 0.8 mi NNW 25.3 mph 34.5 mph 0.53 in Rain , Thunderstorm Heavy Thunderstorms and Rain
4:46 AM 68.0 °F - 66.2 °F 94% 29.99 in 1.0 mi NW 20.7 mph 32.2 mph 0.64 in Rain , Thunderstorm Heavy Thunderstorms and Rain
4:52 AM 69.1 °F - 66.9 °F 93% 29.96 in 1.5 mi NW 17.3 mph 32.2 mph 0.75 in Rain , Thunderstorm Heavy Thunderstorms and Rain
5:01 AM 69.1 °F - 66.9 °F 93% 30.01 in 2.0 mi NNW 23.0 mph 29.9 mph 0.16 in Rain , Thunderstorm Heavy Thunderstorms and Rain
5:11 AM 69.1 °F - 66.9 °F 93% 30.03 in 4.0 mi North 25.3 mph 31.1 mph 0.22 in Rain , Thunderstorm Heavy Thunderstorms and Rain
5:20 AM 70.0 °F - 68.0 °F 93% 30.05 in 5.0 mi NNE 15.0 mph 25.3 mph 0.25 in Rain , Thunderstorm Thunderstorms and Rain
5:52 AM 71.1 °F - 68.0 °F 90% 30.01 in 5.0 mi ENE 5.8 mph - 0.34 in Rain , Thunderstorm Rain
6:06 AM 71.1 °F - 68.0 °F 90% 30.05 in 8.0 mi ESE 6.9 mph - 0.04 in Rain Rain
6:52 AM 70.0 °F - 68.0 °F 93% 30.02 in 10.0 mi SSE 8.1 mph - 0.14 in Rain Light Rain
7:52 AM 69.1 °F - 68.0 °F 96% 30.03 in 10.0 mi SSE 11.5 mph - 0.04 in Rain Light Rain
8:02 AM 69.1 °F - 68.0 °F 96% 30.07 in 10.0 mi South 13.8 mph - 0.00 in Rain Light Rain
8:12 AM 69.1 °F - 68.0 °F 96% 30.07 in 10.0 mi South 13.8 mph - 0.00 in   Mostly Cloudy
8:52 AM 70.0 °F - 68.0 °F 93% 30.06 in 10.0 mi South 13.8 mph - 0.00 in   Overcast
9:24 AM 70.0 °F - 68.0 °F 93% 30.10 in 10.0 mi ESE 13.8 mph - 0.00 in   Scattered Clouds
9:52 AM 71.1 °F - 68.0 °F 90% 30.07 in 10.0 mi ESE 10.4 mph - 0.00 in   Partly Cloudy
10:52 AM 73.0 °F - 70.0 °F 90% 30.04 in 10.0 mi South 15.0 mph - 0.00 in   Scattered Clouds
11:52 AM 78.1 °F - 70.0 °F 76% 30.03 in 10.0 mi SSW 12.7 mph - N/A   Clear
12:52 PM 82.0 °F 85.5 °F 69.1 °F 65% 30.02 in 10.0 mi SSW 3.5 mph - N/A   Clear
1:52 PM 84.0 °F 87.0 °F 68.0 °F 58% 30.01 in 10.0 mi Variable 3.5 mph - N/A   Clear
2:52 PM 84.9 °F 89.4 °F 70.0 °F 61% 30.01 in 10.0 mi NE 6.9 mph - N/A   Clear
3:52 PM 86.0 °F 91.5 °F 71.1 °F 61% 30.01 in 10.0 mi NNE 6.9 mph - N/A   Clear
4:52 PM 84.9 °F 89.4 °F 70.0 °F 61% 30.02 in 10.0 mi North 6.9 mph - N/A   Clear
5:52 PM 84.0 °F 88.4 °F 70.0 °F 63% 30.02 in 10.0 mi NNE 6.9 mph - 0.00 in   Scattered Clouds
6:52 PM 82.9 °F 87.5 °F 71.1 °F 67% 30.02 in 10.0 mi NE 6.9 mph - N/A   Clear
7:52 PM 81.0 °F 84.9 °F 71.1 °F 72% 30.04 in 10.0 mi NE 8.1 mph - N/A   Clear
8:52 PM 79.0 °F - 71.1 °F 77% 30.06 in 10.0 mi ENE 6.9 mph - N/A   Clear
9:52 PM 77.0 °F - 72.0 °F 84% 30.08 in 10.0 mi East 6.9 mph - N/A   Clear
10:52 PM 77.0 °F - 72.0 °F 84% 30.08 in 10.0 mi East 6.9 mph - N/A   Clear
11:52 PM 75.9 °F - 72.0 °F 87% 30.08 in 10.0 mi East 5.8 mph - N/A   Overcast